Change the Weather History Date:

Friday, November 2, 2012

  Actual Average Record
Temperature  
Mean Temperature 57 °F -  
Max Temperature 68 °F 70 °F 77 °F (2000)
Min Temperature 46 °F 44 °F 39 °F (2005)
Degree Days  
Heating Degree Days 8    
Growing Degree Days 7 (Base 50)    
Moisture  
Dew Point 41 °F    
Average Humidity 55    
Maximum Humidity 82    
Minimum Humidity 35    
Precipitation  
Precipitation 0.00 in - - ()
Sea Level Pressure  
Sea Level Pressure 30.20 in    
Wind  
Wind Speed 4 mph ()    
Max Wind Speed 12 mph    
Max Gust Speed -    
Visibility 8.8 miles    
Events      
Averages and records for this station are not official NWS values.
T = Trace of Precipitation, MM = Missing Value Source: Averaged Metar Reports

Daily Weather History Graph

Daily Weather History Graph

Search for Another Location

Airport or City:

Trip Planner

Search our weather history database for the weather conditions in past years. The results will help you decide how hot, cold, wet, or windy it might be!

Date:

Astronomy

Nov. 02, 2012 Rise Set
Actual Time 6:37 AM CST 6:01 PM CST
Civil Twilight 6:15 AM CST 6:24 PM CST
Nautical Twilight 5:49 AM CST 6:50 PM CST
Astronomical Twilight 5:23 AM CST 7:16 PM CST
Moon 9:05 PM CST 9:43 AM CST
Length of Visible Light 12h 09m
Length of Day
11h 23m
Waning Gibbous, 87% of the Moon is Illuminated
Nov 2
Waning Gibbous
Nov 6
Last Quarter
Nov 13
New
Nov 20
First Quarter
Nov 28
Full

Hourly Weather History & Observations

Time (CST) Temp. Windchill Dew Point Humidity Pressure Visibility Wind Dir Wind Speed Gust Speed Precip Events Conditions
12:41 AM 57.2 °F - 37.4 °F 48% 30.31 in 12.0 mi NNW 4.6 mph - N/A   Scattered Clouds
1:47 AM 53.6 °F - 39.2 °F 58% 30.30 in 12.0 mi ESE 4.6 mph - N/A   Scattered Clouds
2:48 AM 53.6 °F - 39.2 °F 58% 30.30 in 12.0 mi East 3.5 mph - N/A   Mostly Cloudy
2:52 AM 53.6 °F - 39.2 °F 58% 29.83 in 12.0 mi East 3.5 mph - N/A   Mostly Cloudy
3:48 AM 50.0 °F - 41.0 °F 71% 30.30 in 10.0 mi East 5.8 mph - N/A   Scattered Clouds
4:46 AM 48.2 °F - 42.8 °F 82% 30.29 in 10.0 mi ENE 8.1 mph - N/A   Scattered Clouds
5:45 AM 46.4 °F 45.2 °F 41.0 °F 81% 29.91 in 10.0 mi East 3.5 mph - N/A   Mostly Cloudy
6:23 AM 48.2 °F - 41.0 °F 76% 30.31 in 10.0 mi Calm Calm - N/A   Mostly Cloudy
6:45 AM 48.2 °F - 41.0 °F 76% 30.33 in 8.0 mi Calm Calm - N/A   Mostly Cloudy
7:24 AM 50.0 °F - 41.0 °F 71% 30.33 in 7.0 mi East 5.8 mph - N/A   Mostly Cloudy
7:44 AM 50.0 °F - 41.0 °F 71% 30.33 in 7.0 mi ENE 4.6 mph - N/A   Mostly Cloudy
8:20 AM 51.8 °F - 41.0 °F 67% 30.34 in 7.0 mi East 4.6 mph - N/A   Mostly Cloudy
8:44 AM 53.6 °F - 41.0 °F 62% 29.95 in 7.0 mi ENE 3.5 mph - N/A   Mostly Cloudy
9:25 AM 55.4 °F - 41.0 °F 58% 30.35 in 6.0 mi NNE 6.9 mph - N/A   Mostly Cloudy
9:42 AM 57.2 °F - 41.0 °F 55% 30.35 in 6.0 mi NNE 4.6 mph - N/A   Mostly Cloudy
10:06 AM 57.2 °F - 41.0 °F 55% 30.35 in 6.0 mi NNE 4.6 mph - N/A   Mostly Cloudy
10:42 AM 59.0 °F - 41.0 °F 51% 30.34 in 6.0 mi NNE 5.8 mph - N/A   Overcast
11:09 AM 62.6 °F - 41.0 °F 45% 30.33 in 6.0 mi ENE 3.5 mph - N/A   Overcast
11:42 AM 62.6 °F - 41.0 °F 45% 29.89 in 6.0 mi ESE 3.5 mph - N/A   Overcast
12:44 PM 66.2 °F - 41.0 °F 40% 30.29 in 6.0 mi East 3.5 mph - N/A   Overcast
12:46 PM 66.2 °F - 41.0 °F 40% 30.29 in 6.0 mi East 3.5 mph - N/A   Overcast
1:44 PM 66.2 °F - 39.2 °F 37% 30.26 in 6.0 mi Calm Calm - N/A   Overcast
2:46 PM 68.0 °F - 39.2 °F 35% 29.80 in 6.0 mi WNW 4.6 mph - N/A   Overcast
3:43 PM 66.2 °F - 41.0 °F 40% 30.22 in 6.0 mi Calm Calm - N/A   Overcast
4:44 PM 64.4 °F - 42.8 °F 45% 30.23 in 7.0 mi WSW 11.5 mph - N/A   Overcast
5:48 PM 64.4 °F - 42.8 °F 45% 29.87 in 7.0 mi SSW 10.4 mph - N/A   Overcast
6:47 PM 62.6 °F - 39.2 °F 42% 30.26 in 9.0 mi South 9.2 mph - N/A   Mostly Cloudy
7:44 PM 60.8 °F - 41.0 °F 48% 30.29 in 12.0 mi SE 10.4 mph - N/A   Mostly Cloudy
8:48 PM 60.8 °F - 39.2 °F 45% 29.90 in 12.0 mi SSE 3.5 mph - N/A   Mostly Cloudy
9:41 PM 60.8 °F - 39.2 °F 45% 30.31 in 15.0 mi SE 4.6 mph - N/A   Scattered Clouds
10:41 PM 60.8 °F - 41.0 °F 48% 30.31 in 15.0 mi SE 5.8 mph - N/A   Mostly Cloudy
11:46 PM 59.0 °F - 39.2 °F 48% 29.85 in 15.0 mi ESE 10.4 mph - N/A   Mostly Cloudy